Erzincan, Turkey

7:12 PM EEST on September 29, 2016 (GMT +0300)
Erzincan

Weather History for LTCD - November, 2012

Change the Weather History Date:

Wednesday, November 28, 2012

  Actual Average Record
Temperature  
Mean Temperature 37 °F -  
Max Temperature 52 °F - - ()
Min Temperature 22 °F - - ()
Degree Days  
Heating Degree Days 28    
Moisture  
Dew Point 29 °F    
Average Humidity 83    
Maximum Humidity 100    
Minimum Humidity 31    
Precipitation  
Precipitation 0.00 in - - ()
Sea Level Pressure  
Sea Level Pressure 30.23 in    
Wind  
Wind Speed 0 mph ()    
Max Wind Speed 4 mph    
Max Gust Speed -    
Visibility 5.4 miles    
Events      
T = Trace of Precipitation, MM = Missing Value Source: Averaged Metar Reports

Daily Weather History Graph

Daily Weather History Graph

Search for Another Location

Airport or City:

Trip Planner

Search our weather history database for the weather conditions in past years. The results will help you decide how hot, cold, wet, or windy it might be!

Date:

Astronomy

Nov. 28, 2012 Rise Set
Actual Time 6:20 AM EET 3:58 PM EET
Civil Twilight 5:51 AM EET 4:28 PM EET
Nautical Twilight 5:17 AM EET 5:01 PM EET
Astronomical Twilight 4:45 AM EET 5:34 PM EET
Moon 3:57 PM EET (11/28) 5:59 AM EET (11/28)
Length of Visible Light 10h 37m
Length of Day
9h 38m
Full, 100% of the Moon is Illuminated
Nov 28
Full
Nov 28
Full
Dec 6
Last Quarter
Dec 13
New
Dec 20
First Quarter

Hourly Weather History & Observations

Time (EET) Temp. Windchill Dew Point Humidity Pressure Visibility Wind Dir Wind Speed Gust Speed Precip Events Conditions
12:50 AM 28.4 °F - 28.4 °F 100% 30.21 in - Calm Calm - N/A   Clear
1:50 AM 24.8 °F - 24.8 °F 100% 30.21 in - Calm Calm - N/A   Clear
2:00 AM 25 °F - 25 °F 100%  in 6 mi Calm Calm - -  
2:50 AM 26.6 °F 22.6 °F 26.6 °F 100% 30.24 in - NW 3.5 mph - N/A   Clear
3:50 AM 26.6 °F - 26.6 °F 100% 30.24 in - Calm Calm - N/A   Clear
4:50 AM 26.6 °F - 26.6 °F 100% 30.24 in - Calm Calm - N/A   Clear
5:50 AM 24.8 °F - 24.8 °F 100% 30.24 in - Calm Calm - N/A   Clear
6:50 AM 23.0 °F - 23.0 °F 100% 30.27 in 4.3 mi Calm Calm - N/A   Unknown
7:50 AM 26.6 °F - 26.6 °F 100% 30.27 in - Calm Calm - N/A   Mist
8:00 AM 27 °F - 26 °F 97%  in 2 mi Calm Calm - -   Mist
8:50 AM 35.6 °F - 32.0 °F 87% 30.27 in 3.7 mi Calm Calm - N/A   Unknown
9:50 AM 39.2 °F - 32.0 °F 75% 30.27 in - Calm Calm - N/A   Clear
10:50 AM 42.8 °F - 33.8 °F 70% 30.27 in - Calm Calm - N/A   Clear
11:50 AM 46.4 °F - 32.0 °F 57% 30.21 in - Variable 1.2 mph - N/A   Clear
12:50 PM 50.0 °F - 32.0 °F 50% 30.21 in - Variable 1.2 mph - N/A   Clear
1:50 PM 51.8 °F - 30.2 °F 44% 30.30 in - Variable 2.3 mph - N/A   Clear
2:00 PM 51 °F - 29 °F 31%  in 6 mi Calm Calm - -  
2:50 PM 51.8 °F - 30.2 °F 44% 30.18 in - Calm Calm - N/A   Clear
3:50 PM 44.6 °F - 32.0 °F 61% 30.18 in - SW 2.3 mph - N/A   Clear
4:50 PM 41.0 °F - 32.0 °F 70% 30.21 in - Calm Calm - N/A   Clear
5:50 PM 37.4 °F - 32.0 °F 81% 30.21 in - Calm Calm - N/A   Clear
6:50 PM 33.8 °F - 30.2 °F 87% 30.21 in - Calm Calm - N/A   Clear
7:50 PM 30.2 °F - 28.4 °F 93% 30.21 in - West 2.3 mph - N/A   Clear
8:00 PM 30 °F - 28 °F 90%  in 12 mi West 2.3 mph - -  
8:50 PM 30.2 °F - 28.4 °F 93% 30.24 in - North 1.2 mph - N/A   Clear
9:50 PM 30.2 °F - 30.2 °F 100% 30.24 in - Calm Calm - N/A   Clear
10:50 PM 28.4 °F - 28.4 °F 100% 30.24 in 5.0 mi SE 1.2 mph - N/A   Unknown
11:50 PM 28.4 °F - 28.4 °F 100% 30.24 in 4.3 mi Calm Calm - N/A   Unknown